SHIYAN-12 02 (SY-12 02)

Last updated on Mon Oct 20 2025 00:02:50 GMT+0000 (Coordinated Universal Time)

1 50322U 21129B 25292.69153875 -.00000354 00000+0 00000+0 0 9992 2 50322 3.0505 83.2536 0002713 169.7669 142.3193 1.00104927 14081
UTC large
Height (km)
Speed (km/s)
/
Latitude / Longitude
Inclination (degrees)
Orbital Period (minutes)
Azimuth
Elevation
Range (km)
Doppler Factor

Next 0 passes for location: London (51.5072 / 0.1276)

Sorry there are no passes over London.